Events

Displaying 7601 - 7700 of 8474

Download data entry template

Text Pg Order within Page Date Location Chronological Order Creation date Updated datesort descending
The Mansion 25 1 1908-05-31 to 1908-06-21 Mink Snopes' Farm in The Mansion (Location) 105.00 view Wed, 2018-03-14 13:13 Tue, 2021-10-19 10:36
The Mansion 26 1 1908-05-31 to 1908-06-21 Mink Snopes' Farm in The Mansion (Location) 106.00 view Thu, 2018-03-15 12:00 Tue, 2021-10-19 10:40
Absalom, Absalom! 186 1 1818-01-01 to 1819-12-31 Tidewater Virginia in Absalom, Absalom! (Location) 7.00 view Thu, 2017-12-07 12:55 Tue, 2021-10-19 10:49
The Mansion 27 1 1908-06-01 to 1908-06-22 Jack|Zack Houston's Land in The Mansion (Location) 107.00 view Thu, 2018-03-15 12:06 Tue, 2021-10-19 10:49
Absalom, Absalom! 185 1 1820-03-01 to 1820-12-31 Tidewater Virginia in Absalom, Absalom! (Location) 11.00 view Thu, 2017-12-07 12:48 Tue, 2021-10-19 10:51
The Mansion 28 1 1908-06-01 to 1908-06-22 Road North from Jefferson in The Mansion (Location) 108.00 view Thu, 2018-03-15 12:14 Tue, 2021-10-19 11:07
The Mansion 29 1 1908-06-01 to 1908-06-22 Varner's Store in The Mansion (Location) 109.00 view Thu, 2018-03-15 12:33 Tue, 2021-10-19 11:19
The Mansion 31 2 1908-06-01 to 1908-06-22 Varner's Store in The Mansion (Location) 110.00 view Thu, 2018-03-15 12:39 Tue, 2021-10-19 11:27
The Mansion 32 2 1908-06-02 to 1908-06-23 Jack|Zack Houston's Land in The Mansion (Location) 113.00 view Thu, 2018-03-15 12:47 Tue, 2021-10-19 11:29
The Mansion 32 3 1908-06-02 to 1908-06-23 Mink Snopes' Farm in The Mansion (Location) 114.00 view Thu, 2018-03-15 12:54 Tue, 2021-10-19 11:30
The Mansion 32 5 1908-06-03 to 1908-06-24 Mink Snopes' Farm in The Mansion (Location) 116.00 view Thu, 2018-03-15 13:04 Tue, 2021-10-19 11:32
The Mansion 32 6 1908-06-03 to 1908-06-24 Mink Snopes' Farm in The Mansion (Location) 117.00 view Thu, 2018-03-15 13:14 Tue, 2021-10-19 11:34
The Mansion 33 1 1908-06-03 to 1908-06-24 Southeast Road|Jefferson to Frenchman's Bend in The Mansion (Location) 118.00 view Fri, 2018-03-16 10:39 Tue, 2021-10-19 11:37
The Mansion 34 1 1908-06-03 to 1908-06-24 Southeast Road|Jefferson to Frenchman's Bend in The Mansion (Location) 119.00 view Fri, 2018-03-16 10:45 Tue, 2021-10-19 11:38
The Mansion 34 2 1905-06-03 to 1906-06-03 Varner's Mill in The Mansion (Location) 25.00 view Fri, 2018-03-16 10:55 Tue, 2021-10-19 11:39
The Mansion 34 3 1908-06-03 to 1908-06-24 Jefferson Hardware Store|McCaslin Hardware Store in The Mansion (Location) 120.00 view Fri, 2018-03-16 11:14 Wed, 2021-10-20 07:43
The Mansion 35 1 1908-06-03 to 1908-06-24 Courthouse and Square in The Mansion (Location) 120.15 view Wed, 2021-10-20 07:51 Wed, 2021-10-20 08:02
The Mansion 35 3 1908-06-03 to 1908-06-24 Courthouse and Square in The Mansion (Location) 120.50 view Fri, 2018-04-13 04:36 Wed, 2021-10-20 08:12
The Mansion 35 2 1910-06-03 to 1910-06-24 Rouncewell's Boarding House|Commercial Hotel in The Mansion (Location) 182.00 view Sun, 2018-03-18 15:37 Wed, 2021-10-20 08:13
The Mansion 35 4 1908-06-01 to 1908-06-22 Varner's Store in The Mansion (Location) 111.00 view Sun, 2018-03-18 15:40 Wed, 2021-10-20 08:14
The Mansion 35 5 1907-09-07 to 1907-09-15 Varner House in The Mansion (Location) 72.10 view Sun, 2018-03-18 15:42 Wed, 2021-10-20 08:14
The Mansion 35 6 1908-06-03 to 1908-06-24 Courthouse and Square in The Mansion (Location) 121.00 view Sun, 2018-03-18 16:04 Wed, 2021-10-20 08:18
The Mansion 36 1 1899-01-01 to 1907-05-01 Courthouse and Square in The Mansion (Location) 13.50 view Fri, 2018-04-13 05:54 Wed, 2021-10-20 08:21
The Mansion 36 2 1908-06-03 to 1908-06-24 Jefferson Movie Theater|Airdome in The Mansion (Location) 121.50 view Fri, 2018-04-13 06:14 Wed, 2021-10-20 08:29
The Mansion 37 2 1905-01-01 to 1905-12-31 Sartoris Bank|Merchants' and Farmers' Bank in The Mansion (Location) 24.50 view Fri, 2018-04-13 06:37 Wed, 2021-10-20 08:38
The Mansion 37 1 1908-06-03 to 1908-06-24 Courthouse and Square in The Mansion (Location) 121.60 view Wed, 2021-10-20 08:31 Wed, 2021-10-20 08:38
The Mansion 37 3 1908-06-03 to 1908-06-24 Courthouse and Square in The Mansion (Location) 121.75 view Fri, 2018-04-13 06:40 Wed, 2021-10-20 08:42
The Mansion 38 1 1908-06-03 to 1908-06-24 Negro Hollow|Freedman Town in The Mansion (Location) 122.00 view Sun, 2018-03-25 09:46 Wed, 2021-10-20 08:46
The Mansion 40 1 1908-06-04 to 1908-06-25 Jefferson Railroad Station in The Mansion (Location) 124.00 view Mon, 2018-03-26 08:20 Wed, 2021-10-20 09:31
The Mansion 41 1 1908-06-04 to 1908-06-25 Jefferson Post Office in The Mansion (Location) 125.00 view Mon, 2018-03-26 08:24 Wed, 2021-10-20 09:33
The Mansion 41 2 1908-06-04 to 1908-06-25 Varner's Store in The Mansion (Location) 126.00 view Mon, 2018-03-26 08:28 Wed, 2021-10-20 09:33
The Mansion 41 3 1908-06-04 to 1908-06-25 Mink Snopes' Farm in The Mansion (Location) 127.00 view Mon, 2018-03-26 08:33 Wed, 2021-10-20 09:35
The Mansion 42 1 1908-06-05 to 1908-06-26 Mink Snopes' Farm in The Mansion (Location) 128.00 view Mon, 2018-03-26 08:35 Wed, 2021-10-20 09:36
The Mansion 42 2 1908-06-05 to 1908-06-26 Quiet Road in "The Hound"|The Hamlet in The Mansion (Location) 129.00 view Mon, 2018-03-26 08:40 Wed, 2021-10-20 09:38
The Mansion 31 1 1908-06-01 to 1908-06-22 Quiet Road in "The Hound"|The Hamlet in The Mansion (Location) 109.10 view Tue, 2021-10-19 11:25 Wed, 2021-10-20 09:40
The Mansion 43 1 1908-06-06 to 1908-06-27 Mink Snopes' Farm in The Mansion (Location) 131.00 view Mon, 2018-03-26 08:43 Wed, 2021-10-20 09:41
The Mansion 43 2 1908-06-07 to 1908-06-28 Quiet Road in "The Hound"|The Hamlet in The Mansion (Location) 135.00 view Mon, 2018-03-26 08:47 Wed, 2021-10-20 09:46
The Mansion 44 1 1908-08-11 to 1908-09-03 Courthouse and Square in The Mansion (Location) 152.00 view Mon, 2018-04-02 10:51 Wed, 2021-10-20 10:06
The Mansion 44 2 1908-06-08 to 1908-06-29 Southeast Road|Jefferson to Frenchman's Bend in The Mansion (Location) 135.90 view Mon, 2018-04-02 10:56 Wed, 2021-10-20 10:08
The Mansion 44 3 1908-06-08 to 1908-06-29 County Jail in The Mansion (Location) 140.00 view Mon, 2018-04-02 11:01 Wed, 2021-10-20 10:11
The Mansion 45 1 1908-08-09 to 1908-09-01 Courthouse and Square in The Mansion (Location) 144.00 view Mon, 2018-04-02 11:19 Wed, 2021-10-20 10:12
The Mansion 45 2 1908-08-10 to 1908-09-02 Courthouse and Square in The Mansion (Location) 146.00 view Mon, 2018-04-02 11:31 Wed, 2021-10-20 10:13
The Mansion 45 3 1908-08-10 to 1908-09-02 County Jail in The Mansion (Location) 148.00 view Mon, 2018-04-02 11:54 Wed, 2021-10-20 10:15
The Mansion 45 4 1908-08-11 to 1908-09-02 Courthouse and Square in The Mansion (Location) 149.00 view Mon, 2018-04-02 11:37 Wed, 2021-10-20 10:19
The Mansion 3 1 1908-08-11 to 1908-09-03 Courthouse and Square in The Mansion (Location) 151.00 view Tue, 2018-02-13 14:13 Wed, 2021-10-20 10:21
The Mansion 46 1 1908-08-11 to 1908-09-02 Courthouse and Square in The Mansion (Location) 151.10 view Mon, 2018-04-02 11:40 Thu, 2021-10-21 08:23
The Mansion 46 2 1908-08-11 to 1908-09-02 County Jail in The Mansion (Location) 153.00 view Mon, 2018-04-02 11:48 Thu, 2021-10-21 08:26
The Mansion 50 1 1908-08-11 to 1908-09-02 Holston House in The Mansion (Location) 155.00 view Mon, 2018-04-02 12:17 Thu, 2021-10-21 08:33
The Mansion 51 1 1908-08-12 to 1908-09-03 County Jail in The Mansion (Location) 156.00 view Mon, 2018-04-02 12:22 Thu, 2021-10-21 08:35
The Mansion 52 1 1908-08-13 to 1908-09-04 The Delta in The Mansion (Location) 157.00 view Mon, 2018-04-02 12:28 Thu, 2021-10-21 08:37
The Mansion 54 1 1908-08-14 to 1908-09-05 Parchman Penitentiary in The Mansion (Location) 159.00 view Mon, 2018-04-02 12:35 Thu, 2021-10-21 08:38
The Mansion 55 1 1910-08-14 to 1911-09-05 Parchman Penitentiary in The Mansion (Location) 184.00 view Mon, 2018-04-02 12:46 Thu, 2021-10-21 08:42
The Town 171 1 1924-01-02 to 1924-12-31 Montgomery Ward Snopes' Studio in The Town (Location) 191.00 view Wed, 2018-06-20 15:55 Thu, 2021-10-21 08:51
The Mansion 57 2 1922-04-01 to 1922-08-31 Sartoris Bank|Merchants' and Farmers' Bank in The Mansion (Location) 252.00 view Tue, 2018-04-03 01:20 Thu, 2021-10-21 08:52
The Mansion 58 1 1923-07-07 to 1923-07-14 Montgomery Ward Snopes' Studio in The Mansion (Location) 278.00 view Tue, 2018-04-03 01:31 Thu, 2021-10-21 08:58
The Mansion 59 1 1922-04-01 to 1922-08-01 Montgomery Ward Snopes' Studio in The Mansion (Location) 254.00 view Tue, 2018-04-03 01:34 Thu, 2021-10-21 08:59
The Mansion 59 2 1909-01-01 to 1909-12-31 Courthouse and Square in The Mansion (Location) 174.00 view Tue, 2018-04-03 01:42 Thu, 2021-10-21 09:00
The Mansion 59 3 1922-04-01 to 1923-07-05 Montgomery Ward Snopes' Studio in The Mansion (Location) 255.00 view Tue, 2018-04-03 01:47 Thu, 2021-10-21 09:03
The Mansion 57 3 1923-07-07 to 1923-07-14 Montgomery Ward Snopes' Studio in The Mansion (Location) 277.00 view Tue, 2018-04-03 01:27 Thu, 2021-10-21 09:03
The Mansion 60 1 1923-07-07 to 1923-07-14 Montgomery Ward Snopes' Studio in The Mansion (Location) 274.00 view Tue, 2018-04-03 01:52 Thu, 2021-10-21 09:05
The Mansion 60 2 1923-07-06 to 1923-07-13 Jefferson Drugstore|Christian's Drugstore|West's Drugstore in The Mansion (Location) 271.00 view Tue, 2018-04-03 01:57 Thu, 2021-10-21 09:06
The Mansion 60 3 1923-07-07 to 1923-07-14 Montgomery Ward Snopes' Studio in The Mansion (Location) 275.00 view Tue, 2018-04-03 02:38 Thu, 2021-10-21 09:07
The Mansion 62 1 1922-04-01 to 1922-08-31 Sartoris Bank|Merchants' and Farmers' Bank in The Mansion (Location) 253.00 view Tue, 2018-04-03 03:16 Thu, 2021-10-21 09:12
The Mansion 61 1 1923-07-06 to 1923-07-13 Jefferson Drugstore|Christian's Drugstore|West's Drugstore in The Mansion (Location) 272.00 view Tue, 2018-04-03 02:45 Thu, 2021-10-21 09:15
The Mansion 61 2 1923-07-07 to 1923-07-14 Montgomery Ward Snopes' Studio in The Mansion (Location) 276.00 view Tue, 2018-04-03 02:51 Thu, 2021-10-21 09:16
The Mansion 62 2 1922-04-01 to 1922-08-31 Montgomery Ward Snopes' Studio in The Mansion (Location) 256.00 view Tue, 2018-04-03 03:31 Thu, 2021-10-21 09:20
The Mansion 63 1 1908-09-09 to 1908-09-24 Jefferson Side-Street Restaurant in The Mansion (Location) 163.00 view Tue, 2018-04-03 03:37 Thu, 2021-10-21 09:22
The Mansion 63 2 1922-04-01 to 1923-07-06 Sartoris Bank|Merchants' and Farmers' Bank in The Mansion (Location) 257.00 view Tue, 2018-04-03 03:45 Thu, 2021-10-21 09:23
The Mansion 63 3 1922-04-01 to 1923-07-06 Montgomery Ward Snopes' Studio in The Mansion (Location) 258.00 view Tue, 2018-04-03 03:50 Thu, 2021-10-21 09:26
The Mansion 64 1 1923-07-07 to 1923-07-14 Montgomery Ward Snopes' Studio in The Mansion (Location) 279.00 view Tue, 2018-04-03 03:55 Thu, 2021-10-21 09:29
The Mansion 65 1 1923-07-07 to 1923-07-14 County Jail in The Mansion (Location) 280.00 view Tue, 2018-04-03 04:03 Thu, 2021-10-21 09:30
The Mansion 65 2 1923-07-07 to 1923-07-15 County Jail in The Mansion (Location) 281.00 view Tue, 2018-04-03 04:07 Thu, 2021-10-21 09:31
The Mansion 66 2 1923-07-08 to 1923-07-15 Montgomery Ward Snopes' Studio in The Mansion (Location) 286.00 view Tue, 2018-04-03 04:16 Thu, 2021-10-21 09:37
The Mansion 66 3 1923-07-08 to 1923-07-15 County Jail in The Mansion (Location) 283.00 view Tue, 2018-04-03 04:20 Thu, 2021-10-21 09:40
The Mansion 67 1 1923-07-08 to 1923-07-15 County Jail in The Mansion (Location) 287.00 view Tue, 2018-04-03 04:32 Thu, 2021-10-21 09:42
The Mansion 68 1 1923-07-09 to 1923-07-16 County Jail in The Mansion (Location) 291.00 view Tue, 2018-04-03 04:35 Thu, 2021-10-21 09:44
The Mansion 68 3 1921-04-01 to 1922-02-28 Varner's Store in The Mansion (Location) 240.00 view Tue, 2018-04-03 04:45 Thu, 2021-10-21 09:45
The Mansion 68 4 1922-03-01 to 1922-11-15 Sartoris Bank|Merchants' and Farmers' Bank in The Mansion (Location) 248.00 view Tue, 2018-04-03 04:51 Thu, 2021-10-21 09:47
The Mansion 68 7 1921-04-06 to 1922-02-28 Courthouse and Square in The Mansion (Location) 245.00 view Tue, 2018-04-03 04:59 Thu, 2021-10-21 09:53
The Mansion 68 5 1921-04-02 to 1922-02-28 Courthouse and Square in The Mansion (Location) 244.91 view Tue, 2018-04-03 04:57 Thu, 2021-10-21 09:56
The Mansion 68 6 1921-04-02 to 1922-02-28 Memphis: Miss Reba's in The Mansion (Location) 244.95 view Thu, 2021-10-21 10:00 Thu, 2021-10-21 10:00
The Mansion 69 1 1923-07-11 to 1923-07-18 Jefferson Railroad Station in The Mansion (Location) 294.00 view Tue, 2018-04-03 05:03 Thu, 2021-10-21 10:25
The Mansion 69 2 1923-07-12 to 1923-07-19 Jefferson Railroad Station in The Mansion (Location) 303.00 view Tue, 2018-04-03 05:13 Thu, 2021-10-21 10:26
The Mansion 69 3 1923-07-12 to 1923-07-19 County Jail in The Mansion (Location) 303.50 view Tue, 2018-04-03 05:21 Thu, 2021-10-21 10:27
The Mansion 69 4 1923-07-12 to 1923-07-26 County Jail in The Mansion (Location) 304.00 view Tue, 2018-04-03 05:29 Thu, 2021-10-21 10:29
The Mansion 70 1 1923-07-18 to 1923-07-20 Courthouse and Square in The Mansion (Location) 306.00 view Tue, 2018-04-03 05:35 Thu, 2021-10-21 10:31
The Mansion 70 2 1923-08-01 to 1923-08-07 Courthouse and Square in The Mansion (Location) 307.00 view Tue, 2018-04-03 05:52 Thu, 2021-10-21 10:33
The Mansion 70 3 1923-08-08 to 1923-08-15 Jefferson Railroad Station in The Mansion (Location) 308.00 view Tue, 2018-04-03 05:56 Thu, 2021-10-21 10:35
The Mansion 72 2 1908-09-08 to 1908-10-01 Courthouse and Square in The Mansion (Location) 164.10 view Tue, 2018-04-03 06:05 Thu, 2021-10-21 10:38
The Mansion 72 3 1904-04-01 to 1923-07-15 Varner's Store in The Mansion (Location) 23.00 view Tue, 2018-04-03 06:09 Thu, 2021-10-21 10:39
The Mansion 73 1 1904-04-02 to 1908-10-01 Varner's Store in The Mansion (Location) 24.00 view Tue, 2018-04-03 09:27 Thu, 2021-10-21 10:40
The Mansion 73 2 1908-09-08 to 1920-07-01 Courthouse and Square in The Mansion (Location) 165.00 view Tue, 2018-04-03 09:31 Thu, 2021-10-21 10:42
The Mansion 73 3 1923-07-08 to 1923-07-15 County Jail in The Mansion (Location) 289.00 view Tue, 2018-04-03 09:35 Thu, 2021-10-21 10:43
The Mansion 73 4 1908-06-08 to 1908-06-29 County Jail in The Mansion (Location) 136.50 view Tue, 2018-04-03 09:40 Thu, 2021-10-21 10:45
The Mansion 74 1 1923-07-08 to 1923-07-15 County Jail in The Mansion (Location) 290.00 view Tue, 2018-04-03 09:53 Thu, 2021-10-21 11:01
The Mansion 78 1 1923-07-09 to 1923-07-16 County Jail in The Mansion (Location) 292.00 view Tue, 2018-04-03 09:57 Thu, 2021-10-21 11:02
The Mansion 79 1 1923-07-11 to 1923-07-18 Memphis: Teaberry Hotel in The Mansion (Location) 295.00 view Tue, 2018-04-03 10:01 Fri, 2021-10-22 09:51
The Mansion 66 1 1923-07-08 to 1923-07-15 County Jail in The Mansion (Location) 285.00 view Tue, 2018-04-03 04:13 Fri, 2021-10-22 09:54
The Mansion 79 2 1922-06-01 to 1922-07-01 Memphis: Miss Reba's in The Mansion (Location) 259.00 view Sat, 2018-04-14 09:50 Fri, 2021-10-22 09:55
The Town 43 1 1911-07-01 to 1911-08-31 Cotton House in Snopes Trilogy in The Town (Location) 49.00 view Mon, 2018-06-04 14:18 Fri, 2021-10-22 10:01

Pages

Subscribe to Events